Location: Miles
(41.4492°N, 81.6087°W)
Time: 06:47:45
(UTC+00:00)

Vanguard 1 Rocket - Pass Details

Date: 18 September 2024
Orbit: 650 x 4218 km, 34.3° (Epoch: 05 October)

Event Time Altitude Azimuth Distance (km) Brightness Sun altitude
Rises 08:59:18 0° 244° (WSW) 5,157 - -24.5°
Reaches altitude 10° 09:02:03 10° 241° (WSW) 4,512 - -24.0°
Exits shadow 09:06:40 30° 232° (SW) 3,662 9.9 -23.2°
Maximum altitude 09:15:40 64° 163° (SSE) 3,346 10.1 -21.7°
Drops below altitude 10° 09:39:36 10° 90° (E) 7,372 13.1 -17.5°
Sets 09:45:43 0° 88° (E) 8,465 13.9 -16.4°
